Location: Équennes
(49.7375°N, 1.9622°E)
Time: 19:01:32
(UTC+00:00)

Cosmos 2278 - Pass Details

Date: 04 October 2023
Orbit: 838 x 853 km, 71.1° (Epoch: 08 December)

Event Time Altitude Azimuth Distance (km) Brightness Sun altitude
Rises 21:52:38 0° 332° (NNW) 3,427 7.8 -39.3°
Reaches altitude 10° 21:56:40 10° 359° (N) 2,491 6.6 -39.7°
Enters shadow 21:58:35 13° 19° (NNE) 2,294 6.2 -39.9°
